Weather in Zimnyatsky

Russia / Volgograd Oblast     49°42′51″N   42°52′21″E
temp.,
°C
wind,
m/s
gust,
m/s
humid.,
%
clouds,
%
prec.,
mm/h
press.,
hPa
HPBL,
m
25 february, thu
thu2500:00−14s236492 0.0 1040267
03:00−13ssw366794 0.0 1038365
06:00−12ssw4767100 0.0 1036422
09:00−11sw5965100 0.0 1034448
12:00−8ssw61057100 0.0 1032625
15:00−7sw71185100 0.1 1029588
18:00−6sw61288100 0.8 1026470
21:00−5wsw71395100 1.1 1023444
26 february, fri
fri2600:00−2wsw61394100 0.6 1020424
03:00−1w51196100 0.8 1020300
06:00+1w41197100 0.3 1019296
09:00+1w51097100 0.8 1019300
12:00+2w4999100 0.4 1018236
15:00+3w51198100 0.4 1018304
18:00+2wsw51097100 0.0 1016288
21:00+3w61495100 0.0 1015450
27 february, sat
sat2700:00+3wsw61395100 0.1 1013380
03:00+3wsw71493100 0.1 1012420
06:00+2w61294100 0.0 1010429
09:00+2w51194100 0.0 1010467
12:00+3w61189100 0.0 1009575
15:00+3w61186100 0.1 1009754
18:00+2w51192100 0.1 1009564
21:00+1w51194100 0.2 1009496
28 february, sun
sun2800:00+1w61193100 0.1 1009536
03:00+1w51091100 0.1 1009386
06:000wnw379888 0.3 1010301
09:00−1n568792 0.4 1012407
12:00−1nnw567285 0.0 1013641
15:00−2nnw577175 0.0 1014718
18:00−4n577696 0.0 1016704
21:00−4n567798 0.0 1019732
1 march, mon
mon100:00−5n5676100 0.1 1021742
03:00−5nnw4573100 0.1 1022735
06:00−6nnw4777100 0.0 1023643
09:00−6n577398 0.0 1025722
12:00−4nnw4666100 0.0 1026777
15:00−4nnw566799 0.0 1027778
18:00−5nnw5771100 0.0 1028752
21:00−5nnw4573100 0.0 1030698